owner,sensor,date,latitude,longitude,vertical_datum,direction_of_sea_water_velocity,sea_water_speed,upward_sea_water_velocity,qcFlag 
TABS,ioos:station:wmo:42044:1,2017-06-01T00:00:00Z,26.1914,-97.0507,2.0,15.16821811,5.771048432,-99999.0,'11133222,11111222,99999999' 
TABS,ioos:station:wmo:42044:1,2017-06-01T00:30:00Z,26.1914,-97.0507,2.0,349.0740606,5.856159151,-99999.0,'11133222,11111222,99999999' 
TABS,ioos:station:wmo:42044:1,2017-06-01T01:00:00Z,26.1914,-97.0507,2.0,351.2637987,8.953887424,-99999.0,'11133222,11111222,99999999' 
TABS,ioos:station:wmo:42044:1,2017-06-01T01:30:00Z,26.1914,-97.0507,2.0,356.1757687,7.346359643,-99999.0,'11133222,11111222,99999999' 
TABS,ioos:station:wmo:42044:1,2017-06-01T02:00:00Z,26.1914,-97.0507,2.0,15.59112039,6.883269572,-99999.0,'11133222,11111222,99999999' 
TABS,ioos:station:wmo:42044:1,2017-06-01T02:30:00Z,26.1914,-97.0507,2.0,3.248338313,10.2364447,-99999.0,'11111222,11111222,99999999' 
TABS,ioos:station:wmo:42044:1,2017-06-01T03:00:00Z,26.1914,-97.0507,2.0,9.918837891,9.288837387,-99999.0,'11133222,11111222,99999999' 
TABS,ioos:station:wmo:42044:1,2017-06-01T03:30:00Z,26.1914,-97.0507,2.0,17.03032741,10.44814338,-99999.0,'11111222,11111222,99999999' 
TABS,ioos:station:wmo:42044:1,2017-06-01T04:00:00Z,26.1914,-97.0507,2.0,3.637582036,12.29476718,-99999.0,'11111222,11111222,99999999' 
TABS,ioos:station:wmo:42044:1,2017-06-01T04:30:00Z,26.1914,-97.0507,2.0,4.457320015,9.779575655,-99999.0,'11133222,11111222,99999999' 
TABS,ioos:station:wmo:42044:1,2017-06-01T05:00:00Z,26.1914,-97.0507,2.0,2.568161161,14.28434458,-99999.0,'11111222,11111222,99999999' 
TABS,ioos:station:wmo:42044:1,2017-06-01T05:30:00Z,26.1914,-97.0507,2.0,11.1414062,15.31869773,-99999.0,'11111222,11111222,99999999' 
TABS,ioos:station:wmo:42044:1,2017-06-01T06:00:00Z,26.1914,-97.0507,2.0,8.255145446,14.27793402,-99999.0,'11111222,11111222,99999999' 
TABS,ioos:station:wmo:42044:1,2017-06-01T06:30:00Z,26.1914,-97.0507,2.0,19.5611755,12.87295615,-99999.0,'11111222,11111222,99999999' 
TABS,ioos:station:wmo:42044:1,2017-06-01T07:00:00Z,26.1914,-97.0507,2.0,11.96560393,12.68562178,-99999.0,'11111222,11111222,99999999' 
TABS,ioos:station:wmo:42044:1,2017-06-01T07:30:00Z,26.1914,-97.0507,2.0,7.618181547,12.97451348,-99999.0,'11111222,11111222,99999999' 
TABS,ioos:station:wmo:42044:1,2017-06-01T08:00:00Z,26.1914,-97.0507,2.0,6.272707775,13.0883536,-99999.0,'11111222,11111222,99999999' 
TABS,ioos:station:wmo:42044:1,2017-06-01T08:30:00Z,26.1914,-97.0507,2.0,13.90143868,15.4422861,-99999.0,'11111222,11111222,99999999' 
TABS,ioos:station:wmo:42044:1,2017-06-01T09:00:00Z,26.1914,-97.0507,2.0,8.28641234,12.9754576,-99999.0,'11111222,11111222,99999999' 
TABS,ioos:station:wmo:42044:1,2017-06-01T09:30:00Z,26.1914,-97.0507,2.0,3.288985457,14.2935405,-99999.0,'11111222,11111222,99999999' 
TABS,ioos:station:wmo:42044:1,2017-06-01T10:00:00Z,26.1914,-97.0507,2.0,3.685074724,14.15927258,-99999.0,'11111222,11111222,99999999' 
TABS,ioos:station:wmo:42044:1,2017-06-01T10:30:00Z,26.1914,-97.0507,2.0,358.963075,11.60190071,-99999.0,'11111222,11111222,99999999' 
TABS,ioos:station:wmo:42044:1,2017-06-01T11:00:00Z,26.1914,-97.0507,2.0,8.622794383,9.871575356,-99999.0,'11133222,11111222,99999999' 
TABS,ioos:station:wmo:42044:1,2017-06-01T11:30:00Z,26.1914,-97.0507,2.0,352.7591809,15.31211938,-99999.0,'11111222,11111222,99999999' 
TABS,ioos:station:wmo:42044:1,2017-06-01T12:00:00Z,26.1914,-97.0507,2.0,1.071032409,13.91242969,-99999.0,'11111222,11111222,99999999' 
TABS,ioos:station:wmo:42044:1,2017-06-01T12:30:00Z,26.1914,-97.0507,2.0,7.059201367,13.99608874,-99999.0,'11111222,11111222,99999999' 
TABS,ioos:station:wmo:42044:1,2017-06-01T13:00:00Z,26.1914,-97.0507,2.0,3.934348105,14.28365849,-99999.0,'11111222,11111222,99999999' 
TABS,ioos:station:wmo:42044:1,2017-06-01T13:30:00Z,26.1914,-97.0507,2.0,3.182108546,15.31360833,-99999.0,'11111222,11111222,99999999' 
TABS,ioos:station:wmo:42044:1,2017-06-01T14:00:00Z,26.1914,-97.0507,2.0,10.14815436,14.69996599,-99999.0,'11111222,11111222,99999999' 
TABS,ioos:station:wmo:42044:1,2017-06-01T14:30:00Z,26.1914,-97.0507,2.0,6.81148263,15.17711764,-99999.0,'11111222,11111222,99999999' 
TABS,ioos:station:wmo:42044:1,2017-06-01T15:00:00Z,26.1914,-97.0507,2.0,4.555351976,14.6061357,-99999.0,'11111222,11111222,99999999' 
TABS,ioos:station:wmo:42044:1,2017-06-01T15:30:00Z,26.1914,-97.0507,2.0,10.07433548,15.54974276,-99999.0,'11111222,11111222,99999999' 
TABS,ioos:station:wmo:42044:1,2017-06-01T16:00:00Z,26.1914,-97.0507,2.0,13.34827407,14.94369767,-99999.0,'11111222,11111222,99999999' 
TABS,ioos:station:wmo:42044:1,2017-06-01T16:30:00Z,26.1914,-97.0507,2.0,16.17355789,13.46281546,-99999.0,'11111222,11111222,99999999' 
TABS,ioos:station:wmo:42044:1,2017-06-01T17:00:00Z,26.1914,-97.0507,2.0,16.27514216,12.41760041,-99999.0,'11111222,11111222,99999999' 
TABS,ioos:station:wmo:42044:1,2017-06-01T17:30:00Z,26.1914,-97.0507,2.0,22.8270584,12.34700369,-99999.0,'11111222,11111222,99999999' 
TABS,ioos:station:wmo:42044:1,2017-06-01T18:00:00Z,26.1914,-97.0507,2.0,18.87139893,15.36595262,-99999.0,'11111222,11111222,99999999' 
TABS,ioos:station:wmo:42044:1,2017-06-01T18:30:00Z,26.1914,-97.0507,2.0,10.35881471,14.29295281,-99999.0,'11111222,11111222,99999999' 
TABS,ioos:station:wmo:42044:1,2017-06-01T19:00:00Z,26.1914,-97.0507,2.0,28.69139031,13.0184062,-99999.0,'11111222,11111222,99999999' 
TABS,ioos:station:wmo:42044:1,2017-06-01T19:30:00Z,26.1914,-97.0507,2.0,34.9953084,14.85595167,-99999.0,'11111222,11111222,99999999' 
TABS,ioos:station:wmo:42044:1,2017-06-01T20:00:00Z,26.1914,-97.0507,2.0,35.6978599,16.22939617,-99999.0,'11111222,11111222,99999999' 
TABS,ioos:station:wmo:42044:1,2017-06-01T20:30:00Z,26.1914,-97.0507,2.0,47.57868768,13.04518685,-99999.0,'11111222,11111222,99999999' 
TABS,ioos:station:wmo:42044:1,2017-06-01T21:00:00Z,26.1914,-97.0507,2.0,44.06638227,12.14970782,-99999.0,'11111222,11111222,99999999' 
TABS,ioos:station:wmo:42044:1,2017-06-01T21:30:00Z,26.1914,-97.0507,2.0,50.20559575,13.24925658,-99999.0,'11111222,11111222,99999999' 
TABS,ioos:station:wmo:42044:1,2017-06-01T22:00:00Z,26.1914,-97.0507,2.0,43.59398434,13.25517258,-99999.0,'11111222,11111222,99999999' 
TABS,ioos:station:wmo:42044:1,2017-06-01T22:30:00Z,26.1914,-97.0507,2.0,51.90589098,11.23256427,-99999.0,'11111222,11111222,99999999' 
TABS,ioos:station:wmo:42044:1,2017-06-01T23:00:00Z,26.1914,-97.0507,2.0,45.21309921,11.41278231,-99999.0,'11111222,11111222,99999999' 
TABS,ioos:station:wmo:42044:1,2017-06-01T23:30:00Z,26.1914,-97.0507,2.0,45.25475087,14.31905374,-99999.0,'11111222,11111222,99999999' 
TABS,ioos:station:wmo:42044:1,2017-06-02T00:00:00Z,26.1914,-97.0507,2.0,54.06759592,8.435128926,-99999.0,'11133222,11111222,99999999' 
TABS,ioos:station:wmo:42044:1,2017-06-02T00:30:00Z,26.1914,-97.0507,2.0,50.65493745,9.400771245,-99999.0,'11133222,11111222,99999999' 
TABS,ioos:station:wmo:42044:1,2017-06-02T01:00:00Z,26.1914,-97.0507,2.0,50.55059204,6.798889615,-99999.0,'11133222,11111222,99999999' 
TABS,ioos:station:wmo:42044:1,2017-06-02T01:30:00Z,26.1914,-97.0507,2.0,1.472981084,7.392442086,-99999.0,'11133222,11111222,99999999' 
TABS,ioos:station:wmo:42044:1,2017-06-02T02:00:00Z,26.1914,-97.0507,2.0,43.55085744,5.312071159,-99999.0,'11133222,11111222,99999999' 
TABS,ioos:station:wmo:42044:1,2017-06-02T02:30:00Z,26.1914,-97.0507,2.0,10.15975611,6.34955904,-99999.0,'11133222,11111222,99999999' 
TABS,ioos:station:wmo:42044:1,2017-06-02T03:00:00Z,26.1914,-97.0507,2.0,29.9399046,5.469963437,-99999.0,'11133222,11111222,99999999' 
TABS,ioos:station:wmo:42044:1,2017-06-02T03:30:00Z,26.1914,-97.0507,2.0,12.83148741,6.574169149,-99999.0,'11133222,11111222,99999999' 
TABS,ioos:station:wmo:42044:1,2017-06-02T04:00:00Z,26.1914,-97.0507,2.0,353.0449033,5.863147619,-99999.0,'11133222,11111222,99999999' 
TABS,ioos:station:wmo:42044:1,2017-06-02T04:30:00Z,26.1914,-97.0507,2.0,24.27283335,5.813957344,-99999.0,'11133222,11111222,99999999' 
TABS,ioos:station:wmo:42044:1,2017-06-02T05:00:00Z,26.1914,-97.0507,2.0,34.86437921,5.143150785,-99999.0,'11133222,11111222,99999999' 
TABS,ioos:station:wmo:42044:1,2017-06-02T05:30:00Z,26.1914,-97.0507,2.0,16.09406224,6.890029028,-99999.0,'11133222,11111222,99999999' 
TABS,ioos:station:wmo:42044:1,2017-06-02T06:00:00Z,26.1914,-97.0507,2.0,21.44413288,5.060296434,-99999.0,'11133222,11111222,99999999' 
TABS,ioos:station:wmo:42044:1,2017-06-02T06:30:00Z,26.1914,-97.0507,2.0,18.00089343,7.92805777,-99999.0,'11133222,11111222,99999999' 
TABS,ioos:station:wmo:42044:1,2017-06-02T07:00:00Z,26.1914,-97.0507,2.0,11.87669471,9.718029636,-99999.0,'11133222,11111222,99999999' 
TABS,ioos:station:wmo:42044:1,2017-06-02T07:30:00Z,26.1914,-97.0507,2.0,17.30968108,9.982073933,-99999.0,'11133222,11111222,99999999' 
TABS,ioos:station:wmo:42044:1,2017-06-02T08:00:00Z,26.1914,-97.0507,2.0,7.510132016,8.492849934,-99999.0,'11133222,11111222,99999999' 
TABS,ioos:station:wmo:42044:1,2017-06-02T08:30:00Z,26.1914,-97.0507,2.0,20.24244298,8.121606984,-99999.0,'11133222,11111222,99999999' 
TABS,ioos:station:wmo:42044:1,2017-06-02T09:00:00Z,26.1914,-97.0507,2.0,16.09475186,8.440835267,-99999.0,'11133222,11111222,99999999' 
TABS,ioos:station:wmo:42044:1,2017-06-02T09:30:00Z,26.1914,-97.0507,2.0,25.05776728,8.5,-99999.0,'11133222,11111222,99999999' 
TABS,ioos:station:wmo:42044:1,2017-06-02T10:00:00Z,26.1914,-97.0507,2.0,33.51042055,8.839191139,-99999.0,'11133222,11111222,99999999' 
TABS,ioos:station:wmo:42044:1,2017-06-02T10:30:00Z,26.1914,-97.0507,2.0,33.56935891,9.20527023,-99999.0,'11133222,11111222,99999999' 
TABS,ioos:station:wmo:42044:1,2017-06-02T11:00:00Z,26.1914,-97.0507,2.0,25.34982055,7.80116017,-99999.0,'11133222,11111222,99999999' 
TABS,ioos:station:wmo:42044:1,2017-06-02T11:30:00Z,26.1914,-97.0507,2.0,43.39525913,6.564525878,-99999.0,'11133222,11111222,99999999' 
TABS,ioos:station:wmo:42044:1,2017-06-02T12:00:00Z,26.1914,-97.0507,2.0,34.91195904,8.194784927,-99999.0,'11133222,11111222,99999999' 
TABS,ioos:station:wmo:42044:1,2017-06-02T12:30:00Z,26.1914,-97.0507,2.0,51.94749964,7.07350691,-99999.0,'11133222,11111222,99999999' 
TABS,ioos:station:wmo:42044:1,2017-06-02T13:00:00Z,26.1914,-97.0507,2.0,49.76373578,7.322636137,-99999.0,'11133222,11111222,99999999' 
TABS,ioos:station:wmo:42044:1,2017-06-02T13:30:00Z,26.1914,-97.0507,2.0,45.19744881,6.158936597,-99999.0,'11133222,11111222,99999999' 
TABS,ioos:station:wmo:42044:1,2017-06-02T14:00:00Z,26.1914,-97.0507,2.0,37.84509997,6.69897007,-99999.0,'11133222,11111222,99999999' 
TABS,ioos:station:wmo:42044:1,2017-06-02T14:30:00Z,26.1914,-97.0507,2.0,41.40510397,5.412947441,-99999.0,'11133222,11111222,99999999' 
TABS,ioos:station:wmo:42044:1,2017-06-02T15:00:00Z,26.1914,-97.0507,2.0,46.38173605,3.812413933,-99999.0,'11133222,11111222,99999999' 
TABS,ioos:station:wmo:42044:1,2017-06-02T15:30:00Z,26.1914,-97.0507,2.0,85.78693604,5.444713032,-99999.0,'11133222,11111222,99999999' 
TABS,ioos:station:wmo:42044:1,2017-06-02T16:00:00Z,26.1914,-97.0507,2.0,80.17013065,6.150292676,-99999.0,'11133222,11111222,99999999' 
TABS,ioos:station:wmo:42044:1,2017-06-02T16:30:00Z,26.1914,-97.0507,2.0,96.8576452,6.113738627,-99999.0,'11133222,11111222,99999999' 
TABS,ioos:station:wmo:42044:1,2017-06-02T17:00:00Z,26.1914,-97.0507,2.0,93.63934363,5.671437208,-99999.0,'11133222,11111222,99999999' 
TABS,ioos:station:wmo:42044:1,2017-06-02T17:30:00Z,26.1914,-97.0507,2.0,108.5748215,5.179826252,-99999.0,'11133222,11111222,99999999' 
TABS,ioos:station:wmo:42044:1,2017-06-02T18:00:00Z,26.1914,-97.0507,2.0,101.640545,7.13678499,-99999.0,'11133222,11111222,99999999' 
TABS,ioos:station:wmo:42044:1,2017-06-02T18:30:00Z,26.1914,-97.0507,2.0,109.9118143,6.870749595,-99999.0,'11133222,11111222,99999999' 
TABS,ioos:station:wmo:42044:1,2017-06-02T19:00:00Z,26.1914,-97.0507,2.0,116.4654023,7.718918318,-99999.0,'11133222,11111222,99999999' 
TABS,ioos:station:wmo:42044:1,2017-06-02T19:30:00Z,26.1914,-97.0507,2.0,119.3576849,9.178779875,-99999.0,'11133222,11111222,99999999' 
TABS,ioos:station:wmo:42044:1,2017-06-02T20:00:00Z,26.1914,-97.0507,2.0,121.2518223,8.866588972,-99999.0,'11133222,11111222,99999999' 
TABS,ioos:station:wmo:42044:1,2017-06-02T20:30:00Z,26.1914,-97.0507,2.0,136.7639422,11.25540315,-99999.0,'11111222,11111222,99999999' 
TABS,ioos:station:wmo:42044:1,2017-06-02T21:00:00Z,26.1914,-97.0507,2.0,135.3208754,5.048821645,-99999.0,'11133222,11111222,99999999' 
TABS,ioos:station:wmo:42044:1,2017-06-02T21:30:00Z,26.1914,-97.0507,2.0,161.8455897,5.809173779,-99999.0,'11133222,11111222,99999999' 
TABS,ioos:station:wmo:42044:1,2017-06-02T22:00:00Z,26.1914,-97.0507,2.0,133.2070415,4.294240329,-99999.0,'11133222,11111222,99999999' 
TABS,ioos:station:wmo:42044:1,2017-06-02T22:30:00Z,26.1914,-97.0507,2.0,157.3457983,3.868462227,-99999.0,'11133222,11111222,99999999' 
TABS,ioos:station:wmo:42044:1,2017-06-02T23:00:00Z,26.1914,-97.0507,2.0,150.7670404,2.498159322,-99999.0,'11133222,11111222,99999999' 
TABS,ioos:station:wmo:42044:1,2017-06-02T23:30:00Z,26.1914,-97.0507,2.0,191.3096956,2.906441123,-99999.0,'11133222,11111222,99999999' 
TABS,ioos:station:wmo:42044:1,2017-06-03T00:00:00Z,26.1914,-97.0507,2.0,218.7962509,2.617479704,-99999.0,'11133222,11111222,99999999' 
TABS,ioos:station:wmo:42044:1,2017-06-03T00:30:00Z,26.1914,-97.0507,2.0,264.3740437,4.692600558,-99999.0,'11133222,11111222,99999999' 
TABS,ioos:station:wmo:42044:1,2017-06-03T01:00:00Z,26.1914,-97.0507,2.0,239.0797997,4.476114386,-99999.0,'11133222,11111222,99999999' 
TABS,ioos:station:wmo:42044:1,2017-06-03T01:30:00Z,26.1914,-97.0507,2.0,226.3274913,4.272072097,-99999.0,'11133222,11111222,99999999' 
TABS,ioos:station:wmo:42044:1,2017-06-03T02:00:00Z,26.1914,-97.0507,2.0,221.5523055,1.763887752,-99999.0,'11133222,11111222,99999999' 
TABS,ioos:station:wmo:42044:1,2017-06-03T02:30:00Z,26.1914,-97.0507,2.0,246.7531501,4.712589522,-99999.0,'11133222,11111222,99999999' 
TABS,ioos:station:wmo:42044:1,2017-06-03T03:00:00Z,26.1914,-97.0507,2.0,226.2124869,5.67933975,-99999.0,'11133222,11111222,99999999' 
TABS,ioos:station:wmo:42044:1,2017-06-03T03:30:00Z,26.1914,-97.0507,2.0,246.322055,4.083772765,-99999.0,'11133222,11111222,99999999' 
TABS,ioos:station:wmo:42044:1,2017-06-03T04:00:00Z,26.1914,-97.0507,2.0,268.8480629,1.990401969,-99999.0,'11133222,11111222,99999999' 
TABS,ioos:station:wmo:42044:1,2017-06-03T04:30:00Z,26.1914,-97.0507,2.0,236.5979888,1.653027525,-99999.0,'11133222,11111222,99999999' 
TABS,ioos:station:wmo:42044:1,2017-06-03T05:00:00Z,26.1914,-97.0507,2.0,57.99469163,1.037737925,-99999.0,'11133222,11111222,99999999' 
TABS,ioos:station:wmo:42044:1,2017-06-03T05:30:00Z,26.1914,-97.0507,2.0,132.7319455,1.429475428,-99999.0,'11133222,11111222,99999999' 
TABS,ioos:station:wmo:42044:1,2017-06-03T06:00:00Z,26.1914,-97.0507,2.0,111.5225498,0.763216876,-99999.0,'11133222,11111222,99999999' 
TABS,ioos:station:wmo:42044:1,2017-06-03T06:30:00Z,26.1914,-97.0507,2.0,83.03654776,1.319734822,-99999.0,'11133222,11111222,99999999' 
TABS,ioos:station:wmo:42044:1,2017-06-03T07:00:00Z,26.1914,-97.0507,2.0,102.8513078,2.697572983,-99999.0,'11133222,11111222,99999999' 
TABS,ioos:station:wmo:42044:1,2017-06-03T07:30:00Z,26.1914,-97.0507,2.0,112.2110051,5.7139916,-99999.0,'11133222,11111222,99999999' 
TABS,ioos:station:wmo:42044:1,2017-06-03T08:00:00Z,26.1914,-97.0507,2.0,100.5734987,6.103638259,-99999.0,'11133222,11111222,99999999' 
TABS,ioos:station:wmo:42044:1,2017-06-03T08:30:00Z,26.1914,-97.0507,2.0,91.32780701,6.041622299,-99999.0,'11133222,11111222,99999999' 
TABS,ioos:station:wmo:42044:1,2017-06-03T09:00:00Z,26.1914,-97.0507,2.0,98.25472922,3.900410235,-99999.0,'11133222,11111222,99999999' 
TABS,ioos:station:wmo:42044:1,2017-06-03T09:30:00Z,26.1914,-97.0507,2.0,86.76210029,6.019609622,-99999.0,'11133222,11111222,99999999' 
TABS,ioos:station:wmo:42044:1,2017-06-03T10:00:00Z,26.1914,-97.0507,2.0,86.10172347,5.883612836,-99999.0,'11133222,11111222,99999999' 
TABS,ioos:station:wmo:42044:1,2017-06-03T10:30:00Z,26.1914,-97.0507,2.0,98.36859298,6.115112427,-99999.0,'11133222,11111222,99999999' 
TABS,ioos:station:wmo:42044:1,2017-06-03T11:00:00Z,26.1914,-97.0507,2.0,114.2101259,4.462488095,-99999.0,'11133222,11111222,99999999' 
TABS,ioos:station:wmo:42044:1,2017-06-03T11:30:00Z,26.1914,-97.0507,2.0,102.3963856,6.102270069,-99999.0,'11133222,11111222,99999999' 
TABS,ioos:station:wmo:42044:1,2017-06-03T12:00:00Z,26.1914,-97.0507,2.0,101.5531982,3.694861296,-99999.0,'11133222,11111222,99999999' 
TABS,ioos:station:wmo:42044:1,2017-06-03T12:30:00Z,26.1914,-97.0507,2.0,140.4251085,6.357082664,-99999.0,'11133222,11111222,99999999' 
TABS,ioos:station:wmo:42044:1,2017-06-03T13:00:00Z,26.1914,-97.0507,2.0,142.2530724,5.488642819,-99999.0,'11133222,11111222,99999999' 
TABS,ioos:station:wmo:42044:1,2017-06-03T13:30:00Z,26.1914,-97.0507,2.0,148.4821361,5.853520308,-99999.0,'11133222,11111222,99999999' 
TABS,ioos:station:wmo:42044:1,2017-06-03T14:00:00Z,26.1914,-97.0507,2.0,154.0997104,4.624499973,-99999.0,'11133222,11111222,99999999' 
TABS,ioos:station:wmo:42044:1,2017-06-03T14:30:00Z,26.1914,-97.0507,2.0,152.9422999,6.243332443,-99999.0,'11133222,11111222,99999999' 
TABS,ioos:station:wmo:42044:1,2017-06-03T15:00:00Z,26.1914,-97.0507,2.0,152.6596299,7.272358627,-99999.0,'11133222,11111222,99999999' 
TABS,ioos:station:wmo:42044:1,2017-06-03T15:30:00Z,26.1914,-97.0507,2.0,158.8962555,7.471077566,-99999.0,'11133222,11111222,99999999' 
TABS,ioos:station:wmo:42044:1,2017-06-03T16:00:00Z,26.1914,-97.0507,2.0,167.8792867,7.763053523,-99999.0,'11133222,11111222,99999999' 
TABS,ioos:station:wmo:42044:1,2017-06-03T16:30:00Z,26.1914,-97.0507,2.0,165.234401,8.004323832,-99999.0,'11133222,11111222,99999999' 
TABS,ioos:station:wmo:42044:1,2017-06-03T17:00:00Z,26.1914,-97.0507,2.0,163.1505175,9.142483251,-99999.0,'11133222,11111222,99999999' 
TABS,ioos:station:wmo:42044:1,2017-06-03T17:30:00Z,26.1914,-97.0507,2.0,168.8989576,12.3612823,-99999.0,'11111222,11111222,99999999' 
TABS,ioos:station:wmo:42044:1,2017-06-03T18:00:00Z,26.1914,-97.0507,2.0,174.6088595,13.19837869,-99999.0,'11111222,11111222,99999999' 
TABS,ioos:station:wmo:42044:1,2017-06-03T18:30:00Z,26.1914,-97.0507,2.0,162.6385721,14.17581744,-99999.0,'11111222,11111222,99999999' 
TABS,ioos:station:wmo:42044:1,2017-06-03T19:00:00Z,26.1914,-97.0507,2.0,169.1520481,16.04674422,-99999.0,'11111222,11111222,99999999' 
TABS,ioos:station:wmo:42044:1,2017-06-03T19:30:00Z,26.1914,-97.0507,2.0,171.2921391,16.97566788,-99999.0,'11111222,11111222,99999999' 
TABS,ioos:station:wmo:42044:1,2017-06-03T20:00:00Z,26.1914,-97.0507,2.0,174.8155623,15.27247524,-99999.0,'11111222,11111222,99999999' 
TABS,ioos:station:wmo:42044:1,2017-06-03T20:30:00Z,26.1914,-97.0507,2.0,171.6029912,16.70911428,-99999.0,'11111222,11111222,99999999' 
TABS,ioos:station:wmo:42044:1,2017-06-03T21:00:00Z,26.1914,-97.0507,2.0,175.3144139,18.24095666,-99999.0,'11111222,11111222,99999999' 
TABS,ioos:station:wmo:42044:1,2017-06-03T21:30:00Z,26.1914,-97.0507,2.0,184.9888687,16.67317006,-99999.0,'11111222,11111222,99999999' 
TABS,ioos:station:wmo:42044:1,2017-06-03T22:00:00Z,26.1914,-97.0507,2.0,193.0078389,15.94928525,-99999.0,'11111222,11111222,99999999' 
TABS,ioos:station:wmo:42044:1,2017-06-03T22:30:00Z,26.1914,-97.0507,2.0,195.8607969,18.66045283,-99999.0,'11111222,11111222,99999999' 
TABS,ioos:station:wmo:42044:1,2017-06-03T23:00:00Z,26.1914,-97.0507,2.0,198.9100509,19.4391898,-99999.0,'11111222,11111222,99999999' 
TABS,ioos:station:wmo:42044:1,2017-06-03T23:30:00Z,26.1914,-97.0507,2.0,199.3962536,17.52464836,-99999.0,'11111222,11111222,99999999' 
TABS,ioos:station:wmo:42044:1,2017-06-04T00:00:00Z,26.1914,-97.0507,2.0,199.8373446,16.14826616,-99999.0,'11111222,11111222,99999999' 
TABS,ioos:station:wmo:42044:1,2017-06-04T00:30:00Z,26.1914,-97.0507,2.0,204.0466105,15.16624212,-99999.0,'11111222,11111222,99999999' 
TABS,ioos:station:wmo:42044:1,2017-06-04T01:00:00Z,26.1914,-97.0507,2.0,202.604476,14.56923128,-99999.0,'11111222,11111222,99999999' 
TABS,ioos:station:wmo:42044:1,2017-06-04T01:30:00Z,26.1914,-97.0507,2.0,212.0812956,11.95572666,-99999.0,'11111222,11111222,99999999' 
TABS,ioos:station:wmo:42044:1,2017-06-04T02:00:00Z,26.1914,-97.0507,2.0,215.1218711,10.09869794,-99999.0,'11111222,11111222,99999999' 
TABS,ioos:station:wmo:42044:1,2017-06-04T02:30:00Z,26.1914,-97.0507,2.0,222.2809836,10.13717909,-99999.0,'11111222,11111222,99999999' 
TABS,ioos:station:wmo:42044:1,2017-06-04T03:00:00Z,26.1914,-97.0507,2.0,222.6902472,8.598331233,-99999.0,'11133222,11111222,99999999' 
TABS,ioos:station:wmo:42044:1,2017-06-04T03:30:00Z,26.1914,-97.0507,2.0,211.4324433,8.590651896,-99999.0,'11133222,11111222,99999999' 
TABS,ioos:station:wmo:42044:1,2017-06-04T04:00:00Z,26.1914,-97.0507,2.0,204.3354169,9.197200661,-99999.0,'11133222,11111222,99999999' 
TABS,ioos:station:wmo:42044:1,2017-06-04T04:30:00Z,26.1914,-97.0507,2.0,210.5355473,10.33307795,-99999.0,'11111222,11111222,99999999' 
TABS,ioos:station:wmo:42044:1,2017-06-04T05:00:00Z,26.1914,-97.0507,2.0,193.6182994,9.980606194,-99999.0,'11133222,11111222,99999999' 
TABS,ioos:station:wmo:42044:1,2017-06-04T05:30:00Z,26.1914,-97.0507,2.0,209.7028457,10.21178241,-99999.0,'11111222,11111222,99999999' 
TABS,ioos:station:wmo:42044:1,2017-06-04T06:00:00Z,26.1914,-97.0507,2.0,201.3703618,9.138325886,-99999.0,'11133222,11111222,99999999' 
TABS,ioos:station:wmo:42044:1,2017-06-04T06:30:00Z,26.1914,-97.0507,2.0,206.3312379,9.874558218,-99999.0,'11133222,11111222,99999999' 
TABS,ioos:station:wmo:42044:1,2017-06-04T07:00:00Z,26.1914,-97.0507,2.0,200.5720377,12.37944264,-99999.0,'11111222,11111222,99999999' 
TABS,ioos:station:wmo:42044:1,2017-06-04T07:30:00Z,26.1914,-97.0507,2.0,200.3273971,13.21288008,-99999.0,'11111222,11111222,99999999' 
TABS,ioos:station:wmo:42044:1,2017-06-04T08:00:00Z,26.1914,-97.0507,2.0,197.0105113,11.45098249,-99999.0,'11111222,11111222,99999999' 
TABS,ioos:station:wmo:42044:1,2017-06-04T08:30:00Z,26.1914,-97.0507,2.0,186.5322883,11.51476009,-99999.0,'11111222,11111222,99999999' 
TABS,ioos:station:wmo:42044:1,2017-06-04T09:00:00Z,26.1914,-97.0507,2.0,194.119188,13.36372703,-99999.0,'11111222,11111222,99999999' 
TABS,ioos:station:wmo:42044:1,2017-06-04T09:30:00Z,26.1914,-97.0507,2.0,186.5145886,13.04423244,-99999.0,'11111222,11111222,99999999' 
TABS,ioos:station:wmo:42044:1,2017-06-04T10:00:00Z,26.1914,-97.0507,2.0,187.1937295,11.33926364,-99999.0,'11111222,11111222,99999999' 
TABS,ioos:station:wmo:42044:1,2017-06-04T10:30:00Z,26.1914,-97.0507,2.0,190.79452,10.25140478,-99999.0,'11111222,11111222,99999999' 
TABS,ioos:station:wmo:42044:1,2017-06-04T11:00:00Z,26.1914,-97.0507,2.0,193.2286085,8.433801041,-99999.0,'11133222,11111222,99999999' 
TABS,ioos:station:wmo:42044:1,2017-06-04T11:30:00Z,26.1914,-97.0507,2.0,192.398238,10.01353584,-99999.0,'11111222,11111222,99999999' 
TABS,ioos:station:wmo:42044:1,2017-06-04T12:00:00Z,26.1914,-97.0507,2.0,188.8050164,10.32164716,-99999.0,'11111222,11111222,99999999' 
TABS,ioos:station:wmo:42044:1,2017-06-04T12:30:00Z,26.1914,-97.0507,2.0,191.5538667,10.58448393,-99999.0,'11111222,11111222,99999999' 
TABS,ioos:station:wmo:42044:1,2017-06-04T13:00:00Z,26.1914,-97.0507,2.0,192.9370406,9.737171047,-99999.0,'11133222,11111222,99999999' 
TABS,ioos:station:wmo:42044:1,2017-06-04T13:30:00Z,26.1914,-97.0507,2.0,177.7662053,9.237017917,-99999.0,'11133222,11111222,99999999' 
TABS,ioos:station:wmo:42044:1,2017-06-04T14:00:00Z,26.1914,-97.0507,2.0,184.7090271,9.622484087,-99999.0,'11133222,11111222,99999999' 
TABS,ioos:station:wmo:42044:1,2017-06-04T14:30:00Z,26.1914,-97.0507,2.0,181.0541916,9.781656301,-99999.0,'11133222,11111222,99999999' 
TABS,ioos:station:wmo:42044:1,2017-06-04T15:00:00Z,26.1914,-97.0507,2.0,180.3228819,10.64016917,-99999.0,'11111222,11111222,99999999' 
TABS,ioos:station:wmo:42044:1,2017-06-04T15:30:00Z,26.1914,-97.0507,2.0,178.0764049,10.72604307,-99999.0,'11111222,11111222,99999999' 
TABS,ioos:station:wmo:42044:1,2017-06-04T16:00:00Z,26.1914,-97.0507,2.0,180.4477915,11.51035186,-99999.0,'11111222,11111222,99999999' 